#timestamp,LO_Frequency,Hit,StdDev 
1508612415.3,286047009.8,N
1508612435.1,286047011.5,Y
1508612455.9,286047002.0,P
1508612475.7,286047003.5,N
1508612495.5,286047001.9,N
1508612515.4,286047003.1,N
1508612535.2,286047003.8,N
1508612555.0,286047005.6,N
1508612555.9,286047005.6,N
1508612575.8,286047008.2,N
1508612595.6,286047010.9,Y
1508612615.4,286047008.4,P
1508612635.3,286047005.1,P
1508612655.1,286047001.8,N
1508612675.8,286047004.1,N
1508612695.7,286047004.0,N
1508612715.5,286047002.0,N
1508612735.3,286047001.0,N
1508612755.2,286046999.0,N
1508612775.9,286046998.1,N
1508612795.7,286047001.0,N
1508612815.6,286046999.7,N
1508612835.4,286047001.4,N
1508612855.2,286047004.0,N
1508612875.1,286047002.3,N
1508612876.0,286047002.3,N
1508612895.8,286047002.5,N
1508612915.6,286047000.1,N
1508612935.5,286047000.9,N
1508612955.3,286046999.8,N
1508612975.1,286047003.5,N
1508612995.9,286047001.8,N
1508613015.7,286046998.8,N
1508613035.5,286046996.8,N
1508613055.4,286047005.5,N
1508613075.2,286047007.6,N
1508613095.0,286047007.1,N
1508613095.9,286047007.1,N
1508613115.8,286047005.7,N
1508613135.6,286047006.0,N
1508613155.4,286047003.5,N
1508613175.3,286047005.9,N
1508613195.1,286047004.2,N
1508613196.0,286047004.2,N
1508613215.8,286047004.4,N
1508613235.7,286046999.9,N
1508613255.5,286046997.1,N
1508613275.3,286046995.6,N
1508613295.2,286046992.7,N
1508613315.9,286046987.2,Y
1508613335.7,286046985.1,P
1508613355.6,286046980.6,N
1508613375.4,286046981.1,N
1508613395.2,286046981.6,N
1508613415.1,286046980.5,N
1508613416.0,286046980.5,N
1508613435.8,286046980.9,N
1508613455.6,286046982.5,N
1508613475.5,286046981.2,N
1508613495.3,286046980.2,Y
1508613515.1,286046996.0,P
1508613535.9,286046994.5,N
1508613555.7,286046994.1,N
1508613575.5,286046993.0,N
1508613595.4,286046991.0,N
1508613615.2,286046991.3,N
1508613635.0,286046990.9,N
1508613635.9,286046990.9,N
1508613655.8,286046988.5,Y
1508613675.6,286046998.5,P
1508613695.4,286046998.6,N
1508613715.3,286047002.1,N
1508613735.1,286047000.0,N
1508613755.8,286046999.0,N
1508613775.7,286047000.7,N
1508613795.5,286047002.7,N
1508613815.3,286047001.9,N
1508613835.2,286047002.2,N
1508613855.9,286047002.0,N
1508613875.7,286047001.0,N
1508613895.6,286047001.1,N
1508613915.4,286047000.8,N
1508613935.2,286046999.0,N
1508613955.1,286046997.0,N
1508613956.0,286046997.0,N
1508613975.8,286046999.2,N
1508613995.6,286046999.5,N
1508614015.5,286046999.0,N
1508614035.3,286046998.6,N
1508614055.1,286046996.6,N
1508614075.9,286046996.8,N
1508614095.7,286046995.4,N
1508614115.5,286046989.0,Y
1508614135.4,286046998.9,P
1508614155.2,286047004.5,P
1508614175.0,286047013.8,P
1508614175.9,286047013.8,N
1508614195.8,286047018.3,N
1508614215.6,286047022.7,N
1508614235.4,286047024.5,N
1508614255.3,286047026.6,N
1508614275.1,286047027.1,N
1508614276.0,286047027.1,N
1508614295.8,286047027.8,N
1508614315.7,286047028.0,N
1508614335.5,286047029.2,N
1508614355.3,286047027.0,N
1508614375.2,286047033.2,Y
1508614395.9,286047017.2,P
1508614415.7,286047016.6,P
1508614435.6,286047020.3,P
1508614455.4,286047021.2,Y
1508614475.2,286047004.3,P
1508614495.1,286047003.5,N
1508614496.0,286047003.5,N
1508614515.8,286047006.9,N
1508614535.6,286047007.3,N
1508614555.5,286047005.9,N
1508614575.3,286047003.8,N
1508614595.1,286047001.6,N
1508614615.9,286046999.3,N
1508614635.7,286046998.0,N
1508614655.5,286046998.8,N
1508614675.4,286046999.0,N
1508614695.2,286046997.2,N
1508614715.0,286046995.0,N
1508614715.9,286046995.0,N
1508614735.8,286046998.6,N
1508614755.6,286046998.6,N
1508614775.4,286046995.8,N
1508614795.3,286046993.8,N
1508614815.1,286046998.8,N
1508614816.0,286046998.8,N
1508614835.8,286046997.6,N
1508614855.7,286047000.7,N
1508614875.5,286047002.4,N
1508614895.3,286047000.0,N
1508614915.2,286046998.2,N
1508614935.9,286046997.3,N
1508614955.7,286046997.0,N
1508614975.6,286046999.2,N
1508614995.4,286046997.2,N
1508615015.2,286046998.9,N
1508615035.1,286046996.9,N
1508615036.0,286046996.9,N
1508615055.8,286046994.1,N
1508615075.6,286046996.2,N
1508615095.5,286046995.1,N
1508615115.3,286046994.6,N
1508615135.1,286046994.7,N
1508615155.9,286046990.9,Y
1508615175.7,286046989.2,P
1508615195.5,286046985.4,P
1508615215.4,286046986.5,N
1508615235.2,286046982.6,Y
1508615255.0,286046994.5,P
1508615255.9,286046994.5,N
1508615275.8,286046992.4,P
1508615295.6,286046992.6,Y
1508615315.5,286046996.7,P
1508615335.3,286046996.9,N
1508615355.1,286046997.0,N
1508615375.8,286046999.3,N
1508615395.7,286046998.9,N
1508615415.5,286046997.2,N
1508615435.3,286046995.7,N
1508615455.2,286046993.6,Y
1508615475.0,286046999.1,P
1508615475.9,286046999.1,N
1508615495.8,286046995.8,P
1508615515.6,286046998.5,N
1508615535.4,286046999.2,N
1508615555.3,286046996.7,N
1508615575.1,286046999.5,N
1508615576.0,286046999.5,N
1508615595.8,286046993.9,Y
1508615615.7,286046993.8,P
1508615635.5,286046995.8,N
1508615655.3,286046994.3,P
1508615675.2,286046993.3,Y
1508615695.9,286046998.5,P
1508615715.7,286046998.5,N
1508615735.6,286046996.9,N
1508615755.4,286047000.4,N
1508615775.2,286047000.6,N
1508615795.1,286046999.2,N
1508615796.0,286046999.2,N
1508615815.8,286047000.8,N
1508615835.6,286047001.1,N
1508615855.5,286047001.0,N
1508615875.3,286047001.0,N
1508615895.1,286047000.8,N
1508615915.9,286047000.8,N
1508615935.7,286046999.8,N
1508615955.5,286047000.1,N
1508615975.4,286046996.5,N
1508615995.2,286047006.8,Y
